This demonstration page uses our WeatherBlox Daily Observations layout. Learn more.

Left ArrowRight Arrow

38.80484, -77.04692

Hourly Observations for August 8, 2022

Temp ( °F °C ) Dew Point ( °F °C ) Humidity (%) Winds ( mph kmh ) Pressure ( in mb ) Visibility ( mi km ) Precip ( " mm )
12:52 am 00:52 Clear 81 27.2 73 22.8 77 77 S 9 15 30.11 1020 10 16 0.00 0.00
1:52 am 01:52 Clear 80 26.7 73 22.8 79 79 S 10 17 30.09 1019 10 16 0.00 0.00
2:52 am 02:52 Clear 80 26.7 73 22.8 79 79 S 9 15 30.08 1019 10 16 0.00 0.00
3:52 am 03:52 Clear 79 26.1 73 22.8 82 82 S 8 13 30.08 1019 10 16 0.00 0.00
4:52 am 04:52 Clear 79 26.1 73 22.8 82 82 S 9 15 30.08 1019 10 16 0.00 0.00
5:52 am 05:52 Mostly Clear 78 25.6 73 22.8 85 85 S 9 15 30.08 1019 10 16 0.00 0.00
6:52 am 06:52 Mostly Sunny 78 25.6 72 22.2 82 82 S 9 15 30.09 1019 10 16 0.00 0.00
7:52 am 07:52 Mostly Sunny 80 26.7 73 22.8 79 79 S 6 9 30.09 1019 10 16 0.00 0.00
8:52 am 08:52 Mostly Sunny 81 27.2 74 23.3 79 79 S 9 15 30.09 1019 10 16 0.00 0.00
9:52 am 09:52 Mostly Sunny 83 28.3 75 23.9 77 77 S 9 15 30.07 1018 10 16 0.00 0.00
10:52 am 10:52 Mostly Sunny 85 29.4 77 25 77 77 S 8 13 30.07 1018 10 16 0.00 0.00
11:52 am 11:52 Partly Cloudy 88 31.1 77 25 70 70 S 12 19 30.06 1018 10 16 0.00 0.00
12:52 pm 12:52 Mostly Cloudy 85 29.4 76 24.4 75 75 SSE 13 20 30.04 1017 10 16 0.01 0.13
1:52 pm 13:52 Mostly Cloudy 87 30.6 78 25.6 75 75 SE 8 13 30.03 1017 10 16 0.01 0.13
2:52 pm 14:52 Mostly Cloudy 92 33.3 76 24.4 60 60 S 10 17 30.01 1016 10 16 0.00 0.00
3:30 pm 15:30 Mostly Cloudy with Nearby Thunderstorms 90 32.2 77 25 66 66 S 14 22 29.99 1015 10 16 0.00 0.00
3:52 pm 15:52 Mostly Cloudy with Nearby Thunderstorms 92 33.3 75 23.9 58 58 S 15 24 29.98 1015 10 16 0.00 0.00
4:13 pm 16:13 Mostly Cloudy with Thunderstorms 88 31.1 72 22.2 59 59 S 15 24 29.98 1015 10 16 0.00 0.00
4:27 pm 16:27 Mostly Cloudy with Nearby Thunderstorms 87 30.6 75 23.9 68 68 ENE 14 22 29.98 1015 10 16 0.00 0.00
4:52 pm 16:52 Mostly Cloudy with Nearby Thunderstorms 85 29.4 74 23.3 70 70 ENE 15 24 29.97 1015 10 16 0.00 0.00
5:19 pm 17:19 Mostly Cloudy 85 29.4 75 23.9 72 72 N 9 15 29.97 1015 10 16 0.00 0.00
5:52 pm 17:52 Mostly Cloudy 85 29.4 76 24.4 75 75 ENE 6 9 29.96 1015 10 16 0.01 0.13
6:52 pm 18:52 Mostly Cloudy 87 30.6 74 23.3 65 65 WSW 9 15 29.96 1015 10 16 0.01 0.13
7:52 pm 19:52 Mostly Cloudy 86 30 73 22.8 65 65 SW 6 9 29.96 1015 10 16 0.00 0.00
8:52 pm 20:52 Partly Cloudy 84 28.9 75 23.9 74 74 S 5 7 29.96 1015 10 16 0.00 0.00
9:52 pm 21:52 Partly Cloudy 84 28.9 75 23.9 74 74 S 9 15 29.97 1015 10 16 0.00 0.00
10:52 pm 22:52 Mostly Clear 83 28.3 76 24.4 79 79 S 8 13 29.97 1015 10 16 0.00 0.00
11:52 pm 23:52 Mostly Clear 83 28.3 75 23.9 77 77 SSW 6 9 29.98 1015 10 16 0.00 0.00

Powered by AerisWeather